2024-247L

Last updated on Tue Jan 21 2025 00:02:04 GMT+0000 (Coordinated Universal Time)

1 62387U 24247L 25020.49829871 .00030484 00000+0 13727-2 0 9992 2 62387 44.9962 198.9390 0003540 180.7779 179.3096 15.20604101 4719
UTC large
Height (km)
Speed (km/s)
/
Latitude / Longitude
Inclination (degrees)
Orbital Period (minutes)
Azimuth
Elevation
Range (km)
Doppler Factor

Next 0 passes for location: London (51.5072 / 0.1276)

Sorry there are no passes over London.